Weather History for Galliano, LA

Change the Weather History Date:

Friday, December 6, 2013

  Actual Average (KAXO) Record (KAXO)
Temperature  
Mean Temperature 65 °F -  
Max Temperature 81 °F 60 °F 77 °F (1998)
Min Temperature 48 °F 57 °F 41 °F (2003)
Growing Degree Days 15 (Base 50)    
Moisture  
Dew Point 66 °F    
Average Humidity 92    
Maximum Humidity 100    
Minimum Humidity 79    
Precipitation  
Precipitation 0.26 in - - ()
Sea Level Pressure  
Sea Level Pressure 30.05 in    
Wind  
Wind Speed 13 mph (SSW)    
Max Wind Speed 20 mph    
Max Gust Speed 28 mph    
Visibility 9 miles    
Events Rain    
Averages and records for this station are not official NWS values.
T = Trace of Precipitation, MM = Missing Value Source: NWS Daily Summary

Daily Weather History Graph

Daily Weather History Graph

Search for Another Location

Airport:

Trip Planner

Search our weather history database for the weather conditions in past years. The results will help you decide how hot, cold, wet, or windy it might be!

Date:

Astronomy

Dec. 06, 2013 Rise Set
Actual Time 6:42 AM CST 5:02 PM CST
Civil Twilight 6:16 AM CST 5:28 PM CST
Nautical Twilight 5:46 AM CST 5:57 PM CST
Astronomical Twilight 5:17 AM CST 6:26 PM CST
Moon 9:57 AM CST (12/6) 9:21 PM CST (12/6)
Length of Visible Light 11h 12m
Length of Day
10h 20m
Waxing Crescent, 19% of the Moon is Illuminated
Dec 6
Waxing Crescent
Dec 9
First Quarter
Dec 17
Full
Dec 25
Last Quarter
Jan 1
New

Hourly Weather History & Observations

Time (CST) Temp. Heat Index Dew Point Humidity Pressure Visibility Wind Dir Wind Speed Gust Speed Precip Events Conditions
12:15 AM 68.0 °F - 68.0 °F 100% 29.97 in 7.0 mi South 11.5 mph - N/A   Overcast
12:35 AM 67.5 °F - 67.5 °F 100% 29.97 in 7.0 mi South 11.5 mph 16.1 mph N/A   Mostly Cloudy
5:35 AM 67.6 °F - 67.6 °F 100% 29.97 in 10.0 mi SSW 9.2 mph 17.3 mph N/A   Overcast
5:55 AM 68.0 °F - 68.0 °F 100% 29.97 in 7.0 mi South 10.4 mph 18.4 mph N/A   Overcast
6:15 AM 67.3 °F - 67.3 °F 100% 29.97 in 7.0 mi South 9.2 mph - N/A   Mostly Cloudy
6:35 AM 66.9 °F - 66.9 °F 100% 29.98 in 7.0 mi South 11.5 mph 16.1 mph N/A   Mostly Cloudy
6:55 AM 67.1 °F - 67.1 °F 100% 29.99 in 7.0 mi South 8.1 mph - N/A   Scattered Clouds
7:15 AM 67.5 °F - 67.5 °F 100% 30.00 in 7.0 mi SSW 8.1 mph - N/A   Mostly Cloudy
7:35 AM 68.0 °F - 68.0 °F 100% 30.01 in 7.0 mi SSW 8.1 mph - N/A   Overcast
7:55 AM 69.1 °F - 68.7 °F 99% 30.02 in 10.0 mi SSW 9.2 mph - N/A   Overcast
8:15 AM 70.9 °F - 70.0 °F 97% 30.02 in 10.0 mi SSW 11.5 mph 17.3 mph N/A   Overcast
8:35 AM 71.8 °F - 70.7 °F 96% 30.03 in 10.0 mi SSW 10.4 mph 18.4 mph N/A   Overcast
8:55 AM 72.9 °F - 71.4 °F 95% 30.03 in 10.0 mi SSW 11.5 mph - N/A   Overcast
9:15 AM 74.1 °F - 71.8 °F 92% 30.03 in 10.0 mi SSW 11.5 mph - N/A   Overcast
9:35 AM 75.7 °F - 72.9 °F 91% 30.03 in 10.0 mi SSW 16.1 mph 20.7 mph N/A   Mostly Cloudy
9:55 AM 78.6 °F - 74.1 °F 86% 30.03 in 10.0 mi SSW 15.0 mph 23.0 mph N/A   Scattered Clouds
10:15 AM 79.0 °F - 74.3 °F 85% 30.04 in 10.0 mi SSW 17.3 mph 23.0 mph N/A   Mostly Cloudy
10:35 AM 78.8 °F - 74.3 °F 86% 30.04 in 10.0 mi SSW 18.4 mph 24.2 mph N/A   Mostly Cloudy
10:55 AM 80.6 °F 85.9 °F 74.5 °F 82% 30.03 in 10.0 mi SSW 19.6 mph 27.6 mph N/A   Mostly Cloudy
11:15 AM 81.9 °F 88.2 °F 74.8 °F 79% 30.03 in 10.0 mi SW 17.3 mph 25.3 mph N/A   Overcast
11:35 AM 79.7 °F - 74.3 °F 83% 30.02 in 10.0 mi SW 17.3 mph 24.2 mph N/A   Overcast
11:55 AM 80.1 °F 84.6 °F 74.3 °F 82% 30.02 in 10.0 mi SSW 16.1 mph 21.9 mph N/A   Overcast
12:15 PM 81.0 °F 86.5 °F 74.5 °F 81% 30.02 in 10.0 mi SW 17.3 mph 25.3 mph N/A   Overcast
12:35 PM 81.5 °F 87.6 °F 74.7 °F 80% 30.01 in 10.0 mi SW 18.4 mph 25.3 mph N/A   Mostly Cloudy
12:55 PM 81.3 °F 87.2 °F 74.5 °F 80% 30.00 in 10.0 mi WSW 16.1 mph 25.3 mph N/A   Overcast
1:15 PM 80.8 °F 86.1 °F 74.5 °F 81% 30.00 in 10.0 mi WSW 16.1 mph 25.3 mph N/A   Overcast
1:35 PM 81.0 °F 86.3 °F 74.3 °F 80% 29.99 in 10.0 mi WSW 18.4 mph 23.0 mph N/A   Mostly Cloudy
1:55 PM 81.1 °F 86.8 °F 74.5 °F 80% 29.99 in 10.0 mi WSW 17.3 mph 21.9 mph N/A   Scattered Clouds
2:15 PM 81.1 °F 86.8 °F 74.3 °F 80% 29.99 in 10.0 mi WSW 19.6 mph 24.2 mph N/A   Scattered Clouds
2:35 PM 80.2 °F 85.0 °F 74.1 °F 82% 29.99 in 10.0 mi WSW 13.8 mph 21.9 mph N/A   Scattered Clouds
2:55 PM 80.1 °F 84.6 °F 74.3 °F 82% 29.99 in 10.0 mi WSW 15.0 mph 21.9 mph N/A   Mostly Cloudy
3:15 PM 79.0 °F - 74.1 °F 85% 29.99 in 10.0 mi WSW 12.7 mph - N/A   Mostly Cloudy
3:35 PM 78.1 °F - 73.8 °F 86% 29.99 in 10.0 mi WSW 13.8 mph 21.9 mph N/A   Mostly Cloudy
3:55 PM 78.3 °F - 73.9 °F 87% 29.99 in 10.0 mi WSW 12.7 mph 18.4 mph N/A   Scattered Clouds
4:15 PM 76.6 °F - 73.4 °F 90% 30.00 in 10.0 mi WSW 13.8 mph 17.3 mph N/A   Mostly Cloudy
4:35 PM 76.5 °F - 73.4 °F 90% 30.01 in 10.0 mi WSW 12.7 mph 18.4 mph N/A   Overcast
5:55 PM 69.8 °F - 65.5 °F 86% 30.05 in 7.0 mi NE 12.7 mph 19.6 mph N/A   Overcast
6:15 PM 62.6 °F - 60.4 °F 93% 30.06 in 5.0 mi NNE 12.7 mph - 0.04 in Rain Heavy Rain
6:35 PM 60.1 °F - 59.0 °F 96% 30.08 in 5.0 mi NNE 12.7 mph 16.1 mph 0.08 in Rain Heavy Rain
6:55 PM 59.0 °F - 58.3 °F 97% 30.09 in 3.0 mi NNE 13.8 mph 18.4 mph 0.17 in Rain Rain
7:15 PM 58.1 °F - 57.2 °F 97% 30.10 in 5.0 mi NNE 11.5 mph - 0.01 in Rain Light Rain
7:35 PM 56.7 °F - 55.9 °F 97% 30.10 in 7.0 mi NNE 16.1 mph 20.7 mph 0.02 in Rain Light Rain
7:55 PM 55.4 °F - 54.5 °F 97% 30.11 in 10.0 mi NE 18.4 mph 25.3 mph 0.02 in Rain Light Rain
8:15 PM 54.5 °F - 53.8 °F 97% 30.12 in 10.0 mi NE 15.0 mph - N/A   Overcast
8:35 PM 54.5 °F - 54.0 °F 98% 30.12 in 10.0 mi NE 15.0 mph - N/A   Overcast
8:55 PM 54.7 °F - 54.0 °F 97% 30.13 in 10.0 mi NE 16.1 mph 20.7 mph N/A   Overcast
9:15 PM 54.5 °F - 53.4 °F 96% 30.14 in 10.0 mi NE 16.1 mph 20.7 mph N/A   Overcast
9:35 PM 54.5 °F - 53.2 °F 96% 30.15 in 10.0 mi NE 15.0 mph - N/A   Overcast
9:55 PM 53.8 °F - 52.3 °F 95% 30.16 in 10.0 mi NE 15.0 mph 19.6 mph N/A   Overcast
10:15 PM 53.1 °F - 51.3 °F 94% 30.17 in 10.0 mi NE 13.8 mph 21.9 mph N/A   Overcast
10:35 PM 52.7 °F - 50.7 °F 93% 30.16 in 5.0 mi NE 17.3 mph 23.0 mph 0.01 in Rain Heavy Rain
10:55 PM 51.3 °F - 50.5 °F 97% 30.18 in 4.0 mi NE 11.5 mph - 0.07 in Rain Light Rain
11:15 PM 50.0 °F - 50.0 °F 100% 30.18 in 10.0 mi NE 15.0 mph 23.0 mph N/A   Overcast
11:35 PM 49.3 °F - 49.1 °F 99% 30.18 in 10.0 mi NE 11.5 mph - N/A   Overcast
11:55 PM 48.2 °F - 48.2 °F 100% 30.18 in 5.0 mi NE 19.6 mph - N/A Rain Light Rain